Lexington Weather

Lexington, Massachusetts, USA

40°F
3/2/2024 8:57am 
  • Lexington Conditions: Mostly cloudy
  • Temperature: 39.6°F / 4.2°CWarmer 1.8°F than last hour.
  • Dew Point: 33.6°FIncreased 1.1°Fsince last hour.
  • Relative Humidity: 79%Decreased 2.0% since last hour.
  • Wind: Calm, 10-min avg: Calm, gust: None
  • Barometer: 30.45 in Steady
  • Visibility: 10 miles
  • Rain Today: 0.00 in
  •   

Regional Weather Roundup
for Boston, MA

        
000
ASUS41 KBOX 251410
RWRBOX

REGIONAL WEATHER ROUNDUP
NATIONAL WEATHER SERVICE BOSTON/NORTON MA
900 AM EST SUN FEB 25 2024

NOTE:  "FAIR" INDICATES FEW OR NO CLOUDS BELOW 12,000 FEET WITH NO 
SIGNIFICANT WEATHER AND/OR OBSTRUCTIONS TO VISIBILITY.

MAZALL-251500-
EASTERN MASSACHUSETTS
  
CITY           SKY/WX    TMP DP  RH WIND       PRES   REMARKS
BOSTON         MOSUNNY   22   0  38 W6        30.16S WCI  14          
BEVERLY        SUNNY     20   2  45 VRB6      30.14S WCI  12          
LAWRENCE       SUNNY     19   1  45 VRB3      30.16S                  
BEDFORD        SUNNY     20   1  43 W5        30.14F WCI  13          
NORWOOD        SUNNY     23   1  38 CALM      30.16S                  
MARSHFIELD     SUNNY     25   3  39 VRB5      30.16R WCI  19          
PLYMOUTH       SUNNY     24   3  40 N5        30.14S WCI  18          
TAUNTON        SUNNY     25   0  33 NW6       30.15S WCI  18          
NEW BEDFORD    SUNNY     24   0  35 N5        30.15S WCI  18          
$$

MAZALL-251500-
CAPE COD AND THE ISLANDS
  
CITY           SKY/WX    TMP DP  RH WIND       PRES   REMARKS
FALMOUTH       SUNNY     23   7  50 NW6       30.14S WCI  16          
HYANNIS        SUNNY     26  15  63 N5        30.13R WCI  20          
CHATHAM        SUNNY     29  14  53 VRB6      30.14R WCI  23          
PROVINCETOWN   SUNNY     26  16  65 NW6       30.16R WCI  19          
NANTUCKET      SUNNY     31  18  58 N9        30.13R WCI  23          
MARTHAS VNYRD  SUNNY     26  11  52 N10       30.14S WCI  16          
$$
 
MAZALL-251500-
CENTRAL AND WESTERN MASSACHUSETTS
  
CITY           SKY/WX    TMP DP  RH WIND       PRES   REMARKS
WORCESTER      SUNNY     20  -1  40 NW8       30.07S WCI  10          
FITCHBURG      SUNNY     21   0  39 W6        30.14S WCI  13          
ORANGE         SUNNY     18   2  49 E3        30.13S                  
SPRINGFIELD    SUNNY     20   4  48 CALM      30.13S                  
WESTFIELD      SUNNY     21   6  52 CALM      30.15R                  
NORTH ADAMS    SUNNY     19   4  51 W6        30.12F WCI  11          
PITTSFIELD     SUNNY     18   6  59 W6        30.06S WCI  10          
$$
 
RIZALL-251500-
RHODE ISLAND
  
CITY           SKY/WX    TMP DP  RH WIND       PRES   REMARKS
PROVIDENCE     SUNNY     23   2  40 NW7       30.17S WCI  15          
NEWPORT        SUNNY     23   3  42 N8        30.15R WCI  14          
BLOCK ISLAND   SUNNY     23   6  48 N8        30.17R WCI  14          
SMITHFIELD     SUNNY     21   3  45 N3          N/A                   
WESTERLY       SUNNY     24   3  40 NW6       30.17R WCI  17          
$$
 
CTZALL-251500-
CONNECTICUT
  
CITY           SKY/WX    TMP DP  RH WIND       PRES   REMARKS
BRADLEY INTL   MOSUNNY   22   5  48 CALM      30.16S                  
HARTFORD       SUNNY     24   4  42 CALM      30.18R                  
PLAINVILLE     FAIR      22   1  40 CALM      30.16S                  
BRIDGEPORT     SUNNY     26   4  38 NW5       30.19R WCI  20          
DANBURY        SUNNY     24   6  46 CALM      30.16R                  
GROTON         SUNNY     25   4  40 N6        30.17S WCI  18          
NEW HAVEN      SUNNY     25   5  42 NE5       30.17S WCI  19          
CHESTER        SUNNY     25   3  39 CALM      30.15R                  
MERIDEN        SUNNY     23   2  40 NW3       30.18R                  
WILLIMANTIC    SUNNY     21   6  52 NE3       30.16S                  
OXFORD         SUNNY     21   8  57 N8        30.13S WCI  11          
$$

MEZ002-015-021-024-NHZ003-005-008-011-012-014-VTZ005-008-251500-
NORTHERN NEW ENGLAND
  
CITY           SKY/WX    TMP DP  RH WIND       PRES   REMARKS
PORTLAND ME    SUNNY     20   3  48 NW5       30.15R WCI  13          
BANGOR ME      SUNNY     15  -1  49 W6        30.11S WCI   6          
CONCORD NH     SUNNY     19   0  43 NW7       30.11S WCI  10          
MANCHESTER NH  SUNNY     21   0  39 CALM      30.12S                  
NASHUA NH      SUNNY     20   3  48 CALM      30.14F                  
PORTSMOUTH NH  SUNNY     19   0  44 CALM      30.14R                  
JAFFREY NH     SUNNY     18   0  45 SE3       30.07R                  
KEENE NH       SUNNY     21   5  50 CALM      30.13S                  
BURLINGTON VT  SUNNY     18   4  54 S12       30.09S WCI   5          
MT. WASHINGTON MOSUNNY   10  -8  44 NW33        N/A  WCI -13          
$$

NYZ052-076-251500-
EASTERN NEW YORK
  
CITY           SKY/WX    TMP DP  RH WIND       PRES   REMARKS
ALBANY         MOSUNNY   21   8  57 CALM      30.16S                  
NEW YORK CITY  MOSUNNY   26   2  35 NE7       30.19S WCI  18          
$$
 
ANZALL-251500-
MARINE OBSERVATIONS
  
STATION/POSITION TIME  TEMP    WIND        PRES    VSBY  WAVE
                       AIR SEA DIR/SP/G                  HT/PER
                 (UTC) (F)     (DEG/KT/KT) (MB)    (MI)  (FT/S)
BOSTON BUOY      1350   21 40  300/  8/ 14 1021.0R         3/10
BUZZARDS BAY     1300   21      10/ 13/ 15 1021.3R
NANTUCKET SOUND  1350   26 37  330/ 12/ 14 1020.3R         1/ 2
MASS BAY-STELLWA 1204   20 39  300/  8/ 12 1020.9R  1 7/8  3/11
ISLE OF SHOALS   1300   17     280/  4/  6 1020.3R
S OF BLOCK IS    1356      40                N/A           4/11
$$

......................KEY.........................
  SKY/WX - SKY CONDITION/PRESENT WEATHER
  TMP    - TEMPERATURE IN FAHRENHEIT
  DWPT   - DEWPOINT IN FAHRENHEIT
  RH     - RELATIVE HUMIDITY IN PERCENT
  WIND   - DIRECTION AND SPEED IN MPH
  PRES   - MEAN SEA LEVEL PRESSURE IN INCHES OF HG
  WCI    - WIND CHILL INDEX
  VSB    - VISIBILITY IN MILES
  HX     - HEAT INDEX
  TC     - TEMPERATURE IN CELSIUS
  VRB    - VARIABLE WIND DIRECTION
  N/A    - NOT AVAILABLE
  
      

Other recent Regional Weather Roundups

Sat Mar 2, 8:10am EST

Sat Mar 2, 7:10am EST

Sat Mar 2, 6:10am EST

Sat Mar 2, 5:10am EST

Sat Mar 2, 4:10am EST

Sat Mar 2, 3:10am EST

Sat Mar 2, 2:10am EST

Sat Mar 2, 1:10am EST

Sat Mar 2, 12:10am EST

Fri Mar 1, 11:10pm EST

Fri Mar 1, 10:10pm EST

Fri Mar 1, 9:10pm EST

Fri Mar 1, 8:10pm EST

Fri Mar 1, 7:10pm EST

Fri Mar 1, 6:10pm EST

Fri Mar 1, 5:10pm EST

Fri Mar 1, 4:10pm EST

Fri Mar 1, 3:10pm EST

Fri Mar 1, 2:10pm EST

Fri Mar 1, 1:10pm EST

Fri Mar 1, 12:10pm EST

Fri Mar 1, 11:10am EST

Fri Mar 1, 10:10am EST

Fri Mar 1, 9:10am EST

Fri Mar 1, 8:10am EST

Fri Mar 1, 7:10am EST

Fri Mar 1, 6:10am EST

Fri Mar 1, 5:10am EST

Fri Mar 1, 4:10am EST

Fri Mar 1, 3:10am EST

Fri Mar 1, 2:10am EST

Fri Mar 1, 1:10am EST

Fri Mar 1, 12:10am EST

Thu Feb 29, 11:10pm EST

Thu Feb 29, 10:10pm EST

Thu Feb 29, 9:10pm EST

Thu Feb 29, 8:10pm EST

Thu Feb 29, 7:10pm EST

Thu Feb 29, 6:10pm EST

Thu Feb 29, 5:10pm EST

Thu Feb 29, 4:10pm EST

Thu Feb 29, 3:10pm EST

Thu Feb 29, 2:10pm EST

Thu Feb 29, 1:10pm EST

Thu Feb 29, 12:10pm EST

Thu Feb 29, 11:10am EST

Thu Feb 29, 10:10am EST

Thu Feb 29, 9:10am EST

Thu Feb 29, 8:10am EST

Thu Feb 29, 7:10am EST

Thu Feb 29, 6:10am EST

Thu Feb 29, 5:10am EST

Thu Feb 29, 4:10am EST

Thu Feb 29, 3:10am EST

Thu Feb 29, 2:10am EST

Thu Feb 29, 1:10am EST

Thu Feb 29, 12:10am EST

Wed Feb 28, 11:10pm EST

Wed Feb 28, 10:10pm EST

Wed Feb 28, 9:10pm EST

Wed Feb 28, 8:10pm EST

Wed Feb 28, 7:10pm EST

Wed Feb 28, 6:10pm EST

Wed Feb 28, 5:10pm EST

Wed Feb 28, 4:10pm EST

Wed Feb 28, 3:10pm EST

Wed Feb 28, 2:10pm EST

Wed Feb 28, 1:10pm EST

Wed Feb 28, 12:10pm EST

Wed Feb 28, 11:10am EST

Wed Feb 28, 10:10am EST

Wed Feb 28, 9:10am EST

Wed Feb 28, 8:10am EST

Wed Feb 28, 7:10am EST

Wed Feb 28, 6:10am EST

Wed Feb 28, 5:10am EST

Wed Feb 28, 4:10am EST

Wed Feb 28, 3:10am EST

Wed Feb 28, 2:10am EST

Wed Feb 28, 1:10am EST

Wed Feb 28, 12:10am EST

Tue Feb 27, 11:10pm EST

Tue Feb 27, 10:10pm EST

Tue Feb 27, 9:10pm EST

Tue Feb 27, 8:10pm EST

Tue Feb 27, 7:10pm EST

Tue Feb 27, 6:10pm EST

Tue Feb 27, 5:10pm EST

Tue Feb 27, 4:10pm EST

Tue Feb 27, 3:10pm EST

Tue Feb 27, 2:10pm EST

Tue Feb 27, 1:10pm EST

Tue Feb 27, 12:10pm EST

Tue Feb 27, 11:10am EST

Tue Feb 27, 10:10am EST

Tue Feb 27, 9:10am EST

Tue Feb 27, 8:10am EST

Tue Feb 27, 7:10am EST

Tue Feb 27, 6:10am EST

Tue Feb 27, 5:10am EST

Tue Feb 27, 4:10am EST

Tue Feb 27, 3:10am EST

Tue Feb 27, 2:10am EST

Tue Feb 27, 1:10am EST

Tue Feb 27, 12:10am EST

Mon Feb 26, 11:10pm EST

Mon Feb 26, 10:10pm EST

Mon Feb 26, 9:10pm EST

Mon Feb 26, 8:10pm EST

Mon Feb 26, 7:10pm EST

Mon Feb 26, 6:10pm EST

Mon Feb 26, 5:10pm EST

Mon Feb 26, 4:10pm EST

Mon Feb 26, 3:10pm EST

Mon Feb 26, 2:10pm EST

Mon Feb 26, 1:10pm EST

Mon Feb 26, 12:10pm EST

Mon Feb 26, 11:10am EST

Mon Feb 26, 10:10am EST

Mon Feb 26, 9:10am EST

Mon Feb 26, 8:10am EST

Mon Feb 26, 7:10am EST

Mon Feb 26, 6:10am EST

Mon Feb 26, 5:10am EST

Mon Feb 26, 4:10am EST

Mon Feb 26, 3:10am EST

Mon Feb 26, 2:10am EST

Mon Feb 26, 1:10am EST

Mon Feb 26, 12:10am EST

Sun Feb 25, 11:10pm EST

Sun Feb 25, 10:10pm EST

Sun Feb 25, 9:10pm EST

Sun Feb 25, 8:10pm EST

Sun Feb 25, 7:10pm EST

Sun Feb 25, 6:10pm EST

Sun Feb 25, 5:10pm EST

Sun Feb 25, 4:10pm EST

Sun Feb 25, 3:10pm EST

Sun Feb 25, 2:10pm EST

Sun Feb 25, 1:10pm EST

Sun Feb 25, 12:10pm EST

Sun Feb 25, 11:10am EST

Sun Feb 25, 10:10am EST

Sun Feb 25, 8:10am EST

Sun Feb 25, 7:10am EST

Sun Feb 25, 6:10am EST

Sun Feb 25, 5:10am EST

Sun Feb 25, 4:10am EST

Sun Feb 25, 3:10am EST

Sun Feb 25, 2:10am EST

Sun Feb 25, 1:10am EST

Sun Feb 25, 12:10am EST

Sat Feb 24, 11:10pm EST

Sat Feb 24, 10:10pm EST

Sat Feb 24, 9:10pm EST

Sat Feb 24, 8:10pm EST

Sat Feb 24, 7:10pm EST

Sat Feb 24, 6:10pm EST

Sat Feb 24, 5:10pm EST

Sat Feb 24, 4:10pm EST

Sat Feb 24, 3:10pm EST

Sat Feb 24, 2:10pm EST

Sat Feb 24, 1:10pm EST

Sat Feb 24, 12:10pm EST

Sat Feb 24, 11:10am EST

Sat Feb 24, 10:10am EST

Sat Feb 24, 9:10am EST